Regional Weather Roundup
Issued by NWS Burlington, VT

Home | Current Version | Previous Version | Text Only | Print | Product List | Glossary On
Versions: 1 2 3 4 5 6 7 8 9 10 11 12 13 14 15 16 17 18 19 20 21 22 23 24 25 26 27 28 29 30 31 32 33 34 35 36 37 38 39 40 41 42 43 44 45 46 47 48 49 50
000
ASUS41 KBTV 261030
RWRBTV
VERMONT REGIONAL WEATHER ROUNDUP
NATIONAL WEATHER SERVICE BURLINGTON VT
500 AM EST SUN FEB 26 2017

NOTE: "FAIR" INDICATES FEW OR NO CLOUDS BELOW 12,000 FEET WITH NO
SIGNIFICANT WEATHER AND/OR OBSTRUCTIONS TO VISIBILITY.

* THESE REPORTS ARE NOT UNDER NWS QUALITY CONTROL AND/OR DO NOT
  REPORT WEATHER SUCH AS PRECIPITATION AND FOG.

VTZ001>019-261100-
_____VERMONT_____


CITY           SKY/WX    TMP DP  RH WIND       PRES   REMARKS
BURLINGTON     CLOUDY    33  17  51 W18G33    29.68R WCI  22
MONTPELIER     CLOUDY    31  23  72 W13G21    29.63R WCI  21
MORRISVILLE    FLURRIES  32  17  54 VRB5G18   29.63R WCI  27
ST. JOHNSBURY*   N/A     32  27  81 MISG      29.58R
LYNDONVILLE*   LGT SNOW  29  26  86 SW16G25   29.58R WCI  18
MIDDLEBURY*    CLOUDY    32  11  41 W6        29.70R WCI  26
RUTLAND*       CLOUDY    32  21  64 W10G21    29.68R WCI  24
SPRINGFIELD    CLOUDY    34  21  59 W17G26    29.66R WCI  23
HIGHGATE*      MOCLDY    31  20  63 W12G22    29.66R WCI  22
NEWPORT*       CLOUDY    29  22  73 W9        29.60R WCI  21
BENNINGTON     CLOUDY    31  23  72 W15G26    29.72R WCI  20
SUTTON*          N/A     28 N/A N/A MISG        N/A
ISLAND POND*     N/A     28 N/A N/A CALM        N/A
GALLUP MILLS*    N/A     28 N/A N/A MISG        N/A
UNION VILLAGE*   N/A     34 N/A N/A MISG        N/A
MT. MANSFIELD*   N/A     14 N/A N/A W9          N/A  WCI   2

_____LAKE CHAMPLAIN_____


CITY           SKY/WX    TMP DP  RH WIND       PRES   REMARKS
BURTON ISLAND*   N/A     34  25  69 NW25G35     N/A  WCI  21
COLCHESTER RF*   N/A     34  21  60 W25G32      N/A  WCI  21
DIAMOND ISL*     N/A     34  18  51 W16G29      N/A  WCI  23

$$

NYZ007-026>031-035-052-083-087-261100-
_____NORTHERN NEW YORK_____


CITY           SKY/WX    TMP DP  RH WIND       PRES   REMARKS
PLATTSBURGH    CLOUDY    32  18  56 VRB7G20   29.67R WCI  26
SARANAC LAKE   CLOUDY    22  17  81 W9G20     29.64  WCI  12
MASSENA        FLURRIES  29  19  66 W20G30    29.73R WCI  16
OGDENSBURG*    FAIR      28  17  63 W14G26    29.77R WCI  17
POTSDAM*       CLOUDY    28  19  69 W15G26    29.74R WCI  17
STARK FALLS*     N/A     25 N/A N/A W13         N/A  WCI  13
WATERTOWN      CLOUDY    29  21  72 W20       29.83R WCI  16
FT DRUM        CLOUDY    27  19  73 W15G25    29.78R WCI  15
ALBANY         CLOUDY    33  21  61 W15G24    29.78R WCI  23
GLENS FALLS    FLURRIES  33  23  66 W14G22    29.74  WCI  23

$$
NHZ002-005-011-261100-
_____NEW HAMPSHIRE_____


CITY           SKY/WX    TMP DP  RH WIND       PRES   REMARKS
LEBANON        CLOUDY    36  22  56 VRB6G21   29.63R WCI  31
KEENE          CLOUDY    36  22  56 W12G29    29.66R WCI  28
MT WASHINGTON  FOG       10  10 100 W74G82      N/A  VSB 0   WCI -20
PLYMOUTH       CLOUDY    35  26  70 NW12      29.58R WCI  27
WHITEFIELD     CLOUDY    32  24  72 W8        29.56R WCI  25

$$

_____REGIONAL QUEBEC LOCATIONS_____


CITY           SKY/WX    TMP DP  RH WIND       PRES   REMARKS
MONTREAL       CLOUDY    30  19  64 W21G29    29.63R WCI  17
QUEBEC CITY    FLURRIES  32  28  86 W18       29.44R WCI  20
SHERBROOKE     FLURRIES  30  23  74 W20G25    29.53R WCI  18

_____REGIONAL ONTARIO LOCATIONS_____


CITY           SKY/WX    TMP DP  RH WIND       PRES   REMARKS
OTTAWA         FLURRIES  23  16  74 W16G29    29.73R WCI  10

______KEY______
VSB  - VISIBILITY IN MILES
WCI  - WIND CHILL INDEX
HX   - HEAT INDEX
$$
NNNN




USA.gov is the U.S. government's official web portal to all federal, state and local government web resources and services.